Location: Ch?enovice
(49.7164°N, 15.2160°E)
Time: 16:15:12
(UTC+00:00)

Cosmos 1315 Rocket - Pass Details

Date: 23 May 2024
Orbit: 515 x 542 km, 81.2° (Epoch: 12 June)

Event Time Altitude Azimuth Distance (km) Brightness Sun altitude
Exits shadow 01:40:00 13° 245° (WSW) 1,570 4.6 -10.8°
Maximum altitude 01:42:32 23° 293° (WNW) 1,142 4.3 -10.5°
Drops below altitude 10° 01:45:44 10° 348° (NNW) 1,788 6.0 -10.2°
Sets 01:48:15 0° 2° (N) 2,689 7.3 -10.0°
